Language: 


Des rapports , des résumés tant et plus, au choix de chacun....


Données Historiques de Météogheer
Journalier Rapport pour Décembre 25, 2017 Unitée:  Impériale    Métrique   Les deux
Suivant Jour »
Journalier Hebdomadaire Mensuel Annuel Sur mesure
  Max: Min: Moyenne:
Température: 48.9 °F 42.1 °F 46.2 °F
Point de rosée: 48.2 °F 41 °F 44.8 °F
Humidité: 98% 85% 93%
Vent: 25.1mph 3.8mph 10.2mph
Rafales: 28.6mph - -
Vent- - SSW
Pression: 30.2 in 29.6 in -
Pluie: 0 in    
Historical Graphs
 
 
Données tabulaires pour Décembre 25, 2017
Heure Température Point de rosée Pression Vent Vent Rafales Humidité Pluie Taux (Horaire) Conditions
00:04 48.7 °F 48.2 °F 30.1 in WSW 11 mph 13.4 mph 98% 0 in
00:08 48.7 °F 48.2 °F 30.1 in SSW 8.7 mph 13.4 mph 98% 0 in
00:13 48.7 °F 48.2 °F 30.1 in SSW 12.3 mph 12.3 mph 98% 0 in
00:15 48.7 °F 48.2 °F 30.1 in WSW 6.3 mph 12.3 mph 98% 0 in
00:20 48.7 °F 48.2 °F 30.1 in SW 7.4 mph 12.3 mph 98% 0 in
00:25 48.7 °F 48.2 °F 30.2 in SW 7.6 mph 12.8 mph 98% 0 in
00:26 48.7 °F 48.2 °F 30.2 in WSW 12.3 mph 12.8 mph 98% 0 in
00:30 48.7 °F 48.2 °F 30.2 in WSW 8.1 mph 13.2 mph 98% 0 in
00:33 48.7 °F 48.2 °F 30.2 in WSW 5.8 mph 13.2 mph 98% 0 in
00:38 48.7 °F 48.2 °F 30.2 in SSW 8.1 mph 12.3 mph 98% 0 in
00:42 48.7 °F 48.2 °F 30.2 in SW 8.5 mph 8.7 mph 98% 0 in
00:47 48.7 °F 48.2 °F 30.2 in WSW 6.5 mph 8.7 mph 98% 0 in
00:49 48.7 °F 48.2 °F 30.2 in SSW 6 mph 8.7 mph 98% 0 in
00:54 48.7 °F 48.2 °F 30.2 in SSW 6.3 mph 8.7 mph 98% 0 in
00:55 48.7 °F 48.2 °F 30.2 in SSW 8.5 mph 8.7 mph 98% 0 in
01:00 48.7 °F 48.2 °F 30.2 in SW 8.7 mph 8.7 mph 98% 0 in
01:01 48.7 °F 48.2 °F 30.2 in WSW 6 mph 8.7 mph 98% 0 in
01:03 48.7 °F 48.2 °F 30.2 in SW 7.8 mph 9.8 mph 98% 0 in
01:07 48.7 °F 48.2 °F 30.2 in SSW 8.5 mph 11.4 mph 98% 0 in
01:08 48.9 °F 48.2 °F 30.2 in SSW 7.4 mph 11.4 mph 98% 0 in
01:13 48.9 °F 48.2 °F 30.2 in SW 8.1 mph 13.2 mph 98% 0 in
01:14 48.9 °F 48.2 °F 30.2 in WSW 6.3 mph 13.2 mph 98% 0 in
01:17 48.9 °F 48.2 °F 30.2 in WSW 9.8 mph 13.2 mph 98% 0 in
01:22 48.9 °F 48.2 °F 30.2 in WSW 8.1 mph 11.4 mph 98% 0 in
01:23 48.9 °F 48.2 °F 30.2 in SW 10.1 mph 11.4 mph 98% 0 in
01:26 48.9 °F 48.2 °F 30.2 in WSW 9.8 mph 12.8 mph 98% 0 in
01:30 48.9 °F 48.2 °F 30.2 in WSW 8.9 mph 12.8 mph 98% 0 in
01:35 48.9 °F 48.2 °F 30.2 in WSW 6 mph 12.5 mph 98% 0 in
01:40 48.9 °F 48.2 °F 30.2 in WSW 7.8 mph 13 mph 98% 0 in
01:45 48.9 °F 48.2 °F 30.1 in SW 13.2 mph 13.2 mph 98% 0 in
01:50 48.9 °F 48.2 °F 30.1 in SSW 12.1 mph 13.2 mph 97% 0 in
01:55 48.9 °F 48.2 °F 30.1 in SW 9.8 mph 13.2 mph 97% 0 in
01:57 48.9 °F 48.2 °F 30.1 in SW 9.4 mph 12.1 mph 97% 0 in
02:02 48.9 °F 48.2 °F 30.1 in WSW 8.5 mph 10.5 mph 97% 0 in
02:06 48.7 °F 48.2 °F 30.1 in SSW 9.8 mph 9.8 mph 97% 0 in
02:11 48.7 °F 48.2 °F 30.1 in SSW 6.3 mph 9.8 mph 97% 0 in
02:13 48.7 °F 48.2 °F 30.1 in SSW 7.4 mph 9.8 mph 97% 0 in
02:14 48.7 °F 48.2 °F 30.1 in SSW 6.3 mph 9.8 mph 97% 0 in
02:19 48.7 °F 48.2 °F 30.1 in WSW 8.7 mph 10.1 mph 96% 0 in
02:20 48.7 °F 48.2 °F 30.1 in SW 5.8 mph 10.3 mph 96% 0 in
02:25 48.7 °F 48.2 °F 30.1 in WSW 6.3 mph 13 mph 96% 0 in
02:27 48.7 °F 48.2 °F 30.1 in WSW 6.5 mph 13 mph 96% 0 in
02:29 48.7 °F 48.2 °F 30.1 in WSW 10.5 mph 13 mph 96% 0 in
02:34 48.7 °F 48.2 °F 30.1 in SW 6.5 mph 10.5 mph 96% 0 in
02:35 48.7 °F 48.2 °F 30.1 in SW 7.6 mph 12.1 mph 96% 0 in
02:40 48.7 °F 48.2 °F 30.1 in SW 7.4 mph 12.1 mph 96% 0 in
02:44 48.7 °F 48.2 °F 30.1 in SSW 7.6 mph 12.1 mph 96% 0 in
02:49 48.7 °F 48.2 °F 30.1 in SSW 7.2 mph 10.7 mph 96% 0 in
02:51 48.7 °F 48.2 °F 30.1 in SW 11 mph 11 mph 96% 0 in
02:53 48.7 °F 48.2 °F 30.1 in SW 11 mph 11 mph 96% 0 in
02:58 48.7 °F 48.2 °F 30.1 in WSW 8.5 mph 12.8 mph 96% 0 in
02:59 48.7 °F 48.2 °F 30.1 in WSW 15.4 mph 15.4 mph 96% 0 in
03:04 48.7 °F 48.2 °F 30.1 in SSW 7.8 mph 15.4 mph 95% 0 in
03:07 48.7 °F 48.2 °F 30.1 in SSW 7.8 mph 15.4 mph 95% 0 in
03:09 48.7 °F 48.2 °F 30.1 in SW 7.4 mph 15.4 mph 95% 0 in
03:14 48.7 °F 48.2 °F 30.1 in SW 7.8 mph 12.1 mph 95% 0 in
03:19 48.7 °F 48.2 °F 30.1 in SSW 6.3 mph 12.1 mph 95% 0 in
03:21 48.7 °F 48.2 °F 30.1 in WSW 8.5 mph 11.4 mph 95% 0 in
03:26 48.7 °F 48.2 °F 30.1 in SSW 8.5 mph 11 mph 95% 0 in
03:27 48.7 °F 48.2 °F 30.1 in WSW 11 mph 11 mph 95% 0 in
03:28 48.7 °F 48.2 °F 30.1 in WSW 6.5 mph 11 mph 95% 0 in
03:33 48.7 °F 48.2 °F 30.1 in WSW 7.8 mph 11 mph 95% 0 in
03:35 48.7 °F 48.2 °F 30.1 in SSW 5.6 mph 11 mph 95% 0 in
03:39 48.7 °F 48.2 °F 30.1 in SW 8.1 mph 9.8 mph 94% 0 in
03:41 48.7 °F 48.2 °F 30.1 in WSW 5.6 mph 9.8 mph 94% 0 in
03:46 48.7 °F 48.2 °F 30.1 in WSW 8.9 mph 10.5 mph 94% 0 in
03:51 48.7 °F 48.2 °F 30.1 in SW 10.5 mph 12.3 mph 94% 0 in
03:54 48.7 °F 48.2 °F 30.1 in SSW 10.7 mph 12.3 mph 94% 0 in
03:59 48.9 °F 48.2 °F 30.1 in SW 8.7 mph 12.3 mph 93% 0 in
04:02 48.9 °F 48.2 °F 30.1 in SW 9.2 mph 12.3 mph 93% 0 in
04:03 48.9 °F 48.2 °F 30.1 in SSW 8.1 mph 12.3 mph 93% 0 in
04:08 48.9 °F 46.4 °F 30.1 in SSW 10.3 mph 12.3 mph 92% 0 in
04:11 48.9 °F 46.4 °F 30.1 in SW 7.8 mph 12.3 mph 92% 0 in
04:16 48.7 °F 46.4 °F 30.1 in SW 10.5 mph 12.3 mph 92% 0 in
04:17 48.7 °F 46.4 °F 30.1 in SW 8.1 mph 12.3 mph 92% 0 in
04:18 48.7 °F 46.4 °F 30.1 in SW 8.1 mph 12.3 mph 92% 0 in
04:22 48.9 °F 46.4 °F 30.1 in WSW 5.6 mph 12.8 mph 92% 0 in
04:24 48.7 °F 46.4 °F 30.1 in WSW 7.4 mph 12.8 mph 92% 0 in
04:28 48.9 °F 46.4 °F 30.1 in SW 8.5 mph 12.8 mph 91% 0 in
04:30 48.9 °F 46.4 °F 30.1 in SSW 8.1 mph 12.8 mph 91% 0 in
04:35 48.9 °F 46.4 °F 30.1 in SW 8.5 mph 13 mph 91% 0 in
04:38 48.7 °F 46.4 °F 30.1 in SSW 6.5 mph 13 mph 91% 0 in
04:43 48.9 °F 46.4 °F 30.1 in SSW 9.8 mph 13.4 mph 90% 0 in
04:44 48.9 °F 46.4 °F 30.1 in WSW 7.8 mph 13.4 mph 90% 0 in
04:48 48.9 °F 46.4 °F 30.1 in SSW 8.7 mph 15.7 mph 89% 0 in
04:50 48.9 °F 46.4 °F 30.1 in SW 9.8 mph 15.7 mph 89% 0 in
04:55 48.9 °F 46.4 °F 30.1 in SW 8.7 mph 15.7 mph 88% 0 in
05:00 48.9 °F 46.4 °F 30.1 in WSW 8.7 mph 14.8 mph 88% 0 in
05:03 48.9 °F 46.4 °F 30.1 in SW 10.1 mph 15.7 mph 87% 0 in
05:07 48.9 °F 46.4 °F 30.1 in WSW 8.5 mph 15.7 mph 87% 0 in
05:10 48.9 °F 46.4 °F 30.1 in SW 8.5 mph 15.7 mph 87% 0 in
05:15 48.9 °F 46.4 °F 30.1 in SW 12.8 mph 12.8 mph 87% 0 in
05:20 48.9 °F 46.4 °F 30.1 in SW 10.7 mph 12.8 mph 87% 0 in
05:25 48.9 °F 46.4 °F 30.1 in WSW 10.7 mph 13.2 mph 87% 0 in
05:27 48.9 °F 46.4 °F 30.1 in SSW 8.5 mph 13.2 mph 87% 0 in
05:31 48.7 °F 46.4 °F 30.1 in SSW 8.5 mph 13 mph 87% 0 in
05:36 48.7 °F 46.4 °F 30.1 in WSW 11 mph 13 mph 87% 0 in
05:39 48.7 °F 46.4 °F 30.1 in WSW 8.7 mph 13 mph 87% 0 in
05:44 48.7 °F 46.4 °F 30.1 in SW 7.6 mph 12.3 mph 87% 0 in
05:49 48.7 °F 46.4 °F 30.1 in SW 8.7 mph 13.2 mph 87% 0 in
05:54 48.7 °F 46.4 °F 30.1 in SSW 8.1 mph 13.2 mph 87% 0 in
05:59 48.7 °F 44.6 °F 30.1 in SW 6.9 mph 11.2 mph 86% 0 in
06:00 48.7 °F 44.6 °F 30.1 in SW 8.5 mph 13.2 mph 86% 0 in
06:05 48.7 °F 46.4 °F 30.1 in SSW 8.5 mph 13.2 mph 87% 0 in
06:07 48.7 °F 46.4 °F 30.1 in SSW 6.5 mph 13.2 mph 87% 0 in
06:12 48.7 °F 46.4 °F 30.1 in SSW 9.8 mph 11.2 mph 87% 0 in
06:14 48.7 °F 46.4 °F 30.1 in SSW 8.7 mph 10.7 mph 87% 0 in
06:19 48.7 °F 46.4 °F 30.1 in SSW 10.3 mph 13 mph 87% 0 in
06:23 48.7 °F 46.4 °F 30.1 in SW 7.8 mph 15.4 mph 87% 0 in
06:26 48.6 °F 46.4 °F 30.1 in WSW 8.1 mph 15.4 mph 87% 0 in
06:28 48.6 °F 46.4 °F 30.1 in WSW 7.8 mph 15.4 mph 87% 0 in
06:31 48.6 °F 46.4 °F 30.1 in WSW 6.7 mph 15.4 mph 87% 0 in
06:36 48.6 °F 46.4 °F 30.1 in SW 11 mph 11 mph 87% 0 in
06:38 48.6 °F 46.4 °F 30.1 in SSW 7.8 mph 12.1 mph 87% 0 in
06:43 48.6 °F 46.4 °F 30 in SW 10.3 mph 15.2 mph 87% 0 in
06:45 48.6 °F 46.4 °F 30 in SW 7.4 mph 15.4 mph 87% 0 in
06:50 48.6 °F 46.4 °F 30 in SSW 10.3 mph 15.4 mph 88% 0 in
06:53 48.4 °F 44.6 °F 30 in SW 9.8 mph 15.4 mph 88% 0 in
06:55 48.4 °F 44.6 °F 30 in SSW 9.8 mph 12.5 mph 88% 0 in
07:00 48.4 °F 46.4 °F 30 in SW 5.6 mph 11.2 mph 89% 0 in
07:05 48.2 °F 46.4 °F 30 in SSW 7.4 mph 9.6 mph 90% 0 in
07:06 48.2 °F 46.4 °F 30 in SSW 7.4 mph 9.6 mph 90% 0 in
07:11 48 °F 46.4 °F 30 in SSW 7.2 mph 9.8 mph 91% 0 in
07:12 48 °F 46.4 °F 30 in SSW 8.1 mph 9.8 mph 91% 0 in
07:17 47.8 °F 46.4 °F 30 in SSW 7.4 mph 9.8 mph 92% 0 in
07:19 47.8 °F 46.4 °F 30 in SW 5.8 mph 9.8 mph 92% 0 in
07:23 47.7 °F 46.4 °F 30 in SW 5.6 mph 8.1 mph 93% 0 in
07:28 47.5 °F 46.4 °F 30 in SSW 5.4 mph 9.8 mph 94% 0 in
07:32 47.5 °F 46.4 °F 30 in SSW 10.1 mph 13.2 mph 94% 0 in
07:37 47.3 °F 46.4 °F 30 in SW 6.3 mph 13.2 mph 95% 0 in
07:38 47.3 °F 46.4 °F 30 in SW 9.2 mph 13.2 mph 95% 0 in
07:43 47.3 °F 46.4 °F 30 in WSW 9.8 mph 11.9 mph 95% 0 in
07:44 47.3 °F 46.4 °F 30 in SW 10.1 mph 12.3 mph 95% 0 in
07:49 47.3 °F 46.4 °F 30 in WSW 9.6 mph 13.2 mph 95% 0 in
07:53 47.3 °F 46.4 °F 30 in SW 7.4 mph 13.2 mph 95% 0 in
07:58 47.3 °F 46.4 °F 30 in SW 8.5 mph 12.5 mph 95% 0 in
07:59 47.3 °F 46.4 °F 30 in SW 8.7 mph 12.5 mph 95% 0 in
08:04 47.3 °F 46.4 °F 30 in WSW 8.5 mph 10.5 mph 95% 0 in
08:05 47.3 °F 46.4 °F 30 in SSW 6.3 mph 12.3 mph 95% 0 in
08:10 47.3 °F 46.4 °F 30 in SSW 8.1 mph 12.3 mph 95% 0 in
08:13 47.3 °F 46.4 °F 30 in SW 8.5 mph 12.3 mph 95% 0 in
08:19 47.3 °F 46.4 °F 30 in WSW 7.4 mph 11 mph 95% 0 in
08:24 47.3 °F 46.4 °F 30 in SSW 6.3 mph 10.5 mph 95% 0 in
08:27 47.1 °F 46.4 °F 30 in SSW 7.4 mph 10.5 mph 95% 0 in
08:32 47.1 °F 46.4 °F 30 in South 3.8 mph 10.5 mph 95% 0 in
08:37 47.1 °F 46.4 °F 30 in SSW 11 mph 11 mph 95% 0 in
08:40 46.9 °F 46.4 °F 30 in WSW 8.1 mph 11 mph 95% 0 in
08:42 46.9 °F 46.4 °F 30 in SSW 7.8 mph 12.3 mph 95% 0 in
08:47 46.9 °F 46.4 °F 30 in SSW 6.3 mph 12.5 mph 96% 0 in
08:49 46.8 °F 46.4 °F 30 in SSW 6 mph 12.5 mph 96% 0 in
08:54 46.8 °F 46.4 °F 30 in SW 7.8 mph 12.5 mph 96% 0 in
08:55 46.8 °F 46.4 °F 30 in SSW 8.1 mph 12.5 mph 96% 0 in
09:00 46.8 °F 46.4 °F 30 in SSW 7.8 mph 10.7 mph 96% 0 in
09:03 46.8 °F 46.4 °F 30 in SW 8.7 mph 10.7 mph 96% 0 in
09:08 46.8 °F 46.4 °F 30 in SW 8.9 mph 10.5 mph 96% 0 in
09:12 46.8 °F 46.4 °F 30 in SSW 7.2 mph 10.7 mph 96% 0 in
09:17 46.6 °F 46.4 °F 30 in South 9.6 mph 10.7 mph 96% 0 in
09:22 46.6 °F 46.4 °F 30 in SW 5.4 mph 13.2 mph 96% 0 in
09:23 46.6 °F 46.4 °F 30 in SSW 8.5 mph 13.2 mph 96% 0 in
09:28 46.6 °F 46.4 °F 30 in SSW 6.9 mph 12.1 mph 96% 0 in
09:29 46.4 °F 46.4 °F 30 in SW 7.2 mph 10.7 mph 96% 0 in
09:34 46.4 °F 46.4 °F 30 in SSW 9.8 mph 12.3 mph 96% 0 in
09:36 46.4 °F 46.4 °F 30 in SW 9.8 mph 12.3 mph 97% 0 in
09:41 46.4 °F 46.4 °F 30 in South 7.8 mph 12.5 mph 97% 0 in
09:42 46.4 °F 46.4 °F 30 in SSW 6.3 mph 12.5 mph 97% 0 in
09:47 46.4 °F 46.4 °F 30 in SSW 4 mph 12.5 mph 97% 0 in
09:48 46.4 °F 46.4 °F 30 in SSW 6 mph 12.5 mph 97% 0 in
09:53 46.4 °F 46.4 °F 30 in WSW 11 mph 11.2 mph 97% 0 in
09:58 46.4 °F 46.4 °F 30 in SSW 10.3 mph 13 mph 97% 0 in
09:59 46.4 °F 46.4 °F 30 in WSW 10.7 mph 13 mph 97% 0 in
10:04 46.6 °F 46.4 °F 30 in SW 11.4 mph 13 mph 97% 0 in
10:07 46.6 °F 46.4 °F 30 in SSW 10.3 mph 13 mph 97% 0 in
10:12 46.6 °F 46.4 °F 30 in SSW 6.3 mph 12.3 mph 96% 0 in
10:17 46.6 °F 46.4 °F 30 in SSW 7.2 mph 12.8 mph 96% 0 in
10:22 46.8 °F 46.4 °F 30 in WSW 5.6 mph 12.8 mph 96% 0 in
10:24 46.8 °F 46.4 °F 30 in South 10.5 mph 12.8 mph 95% 0 in
10:29 46.8 °F 44.6 °F 30 in South 7.8 mph 13.2 mph 94% 0 in
10:30 46.8 °F 44.6 °F 30 in SSW 6.3 mph 13.2 mph 94% 0 in
10:32 46.8 °F 44.6 °F 30 in SSW 7.6 mph 13.2 mph 94% 0 in
10:37 46.8 °F 44.6 °F 30 in SSW 10.3 mph 12.8 mph 94% 0 in
10:39 46.8 °F 44.6 °F 30 in SSW 6 mph 12.8 mph 94% 0 in
10:44 46.6 °F 44.6 °F 30 in SSW 10.3 mph 12.8 mph 93% 0 in
10:45 46.6 °F 44.6 °F 30 in South 12.5 mph 12.8 mph 93% 0 in
10:49 46.6 °F 44.6 °F 30 in SSW 7.6 mph 13.6 mph 93% 0 in
10:51 46.6 °F 44.6 °F 30 in South 13.2 mph 13.6 mph 93% 0 in
10:56 46.6 °F 44.6 °F 30 in SSW 6.3 mph 16.8 mph 93% 0 in
11:01 46.4 °F 44.6 °F 30 in WSW 8.7 mph 16.8 mph 93% 0 in
11:06 46.4 °F 44.6 °F 30 in SSW 9.8 mph 17.2 mph 93% 0 in
11:07 46.4 °F 44.6 °F 30 in South 9.6 mph 17.2 mph 93% 0 in
11:08 46.4 °F 44.6 °F 30 in SSW 8.5 mph 17.2 mph 93% 0 in
11:13 46.4 °F 44.6 °F 30 in SW 10.1 mph 17.2 mph 93% 0 in
11:14 46.4 °F 44.6 °F 30 in South 8.1 mph 17.2 mph 93% 0 in
11:17 46.4 °F 44.6 °F 30 in SSW 9.8 mph 15.4 mph 92% 0 in
11:19 46.4 °F 44.6 °F 30 in SSW 10.7 mph 15.4 mph 92% 0 in
11:24 46.6 °F 44.6 °F 30 in SSW 6.5 mph 13.2 mph 92% 0 in
11:25 46.6 °F 44.6 °F 30 in SSW 10.5 mph 13.2 mph 92% 0 in
11:30 46.6 °F 44.6 °F 30 in SSW 6 mph 15.4 mph 91% 0 in
11:31 46.6 °F 44.6 °F 30 in South 10.5 mph 15.4 mph 90% 0 in
11:36 46.6 °F 44.6 °F 30 in SSW 10.3 mph 15.4 mph 89% 0 in
11:40 46.8 °F 42.8 °F 30 in SSW 8.5 mph 13.9 mph 88% 0 in
11:43 46.8 °F 42.8 °F 30 in SW 9.6 mph 13.2 mph 88% 0 in
11:47 46.9 °F 44.6 °F 30 in SW 7.6 mph 12.3 mph 87% 0 in
11:48 46.9 °F 44.6 °F 30 in SSW 9.8 mph 13.2 mph 87% 0 in
11:53 46.9 °F 42.8 °F 30 in South 8.5 mph 13.2 mph 86% 0 in
11:55 46.9 °F 42.8 °F 30 in South 13.4 mph 13.4 mph 86% 0 in
12:00 47.1 °F 42.8 °F 30 in SSW 8.5 mph 14.8 mph 85% 0 in
12:01 47.1 °F 42.8 °F 30 in SSW 5.4 mph 14.8 mph 85% 0 in
12:02 47.1 °F 42.8 °F 30 in SW 12.8 mph 14.8 mph 85% 0 in
12:07 47.1 °F 42.8 °F 30 in SSW 10.3 mph 12.8 mph 85% 0 in
12:11 47.1 °F 42.8 °F 29.9 in South 10.7 mph 12.8 mph 85% 0 in
12:16 47.1 °F 42.8 °F 29.9 in SW 11.2 mph 12.8 mph 85% 0 in
12:21 47.1 °F 42.8 °F 29.9 in SSW 6.5 mph 13.4 mph 85% 0 in
12:23 47.1 °F 42.8 °F 29.9 in SSW 7.8 mph 13.4 mph 85% 0 in
12:28 47.1 °F 42.8 °F 30 in SSW 6 mph 19.2 mph 85% 0 in
12:30 47.1 °F 42.8 °F 30 in SSW 9.8 mph 19.2 mph 86% 0 in
12:33 47.1 °F 42.8 °F 30 in SW 6 mph 19.2 mph 86% 0 in
12:36 47.1 °F 42.8 °F 30 in South 10.5 mph 10.7 mph 86% 0 in
12:38 47.1 °F 42.8 °F 30 in SSW 10.7 mph 10.7 mph 86% 0 in
12:43 47.1 °F 42.8 °F 29.9 in South 8.5 mph 11 mph 86% 0 in
12:44 47.1 °F 42.8 °F 29.9 in South 8.7 mph 11 mph 86% 0 in
12:49 46.9 °F 44.6 °F 29.9 in South 8.1 mph 19.5 mph 87% 0 in
12:50 46.9 °F 44.6 °F 29.9 in South 12.1 mph 19.5 mph 87% 0 in
12:55 47.1 °F 44.6 °F 29.9 in South 7.6 mph 19.5 mph 87% 0 in
12:58 47.1 °F 44.6 °F 29.9 in SSW 8.7 mph 15.2 mph 87% 0 in
13:03 47.1 °F 44.6 °F 29.9 in South 11 mph 15.2 mph 88% 0 in
13:05 47.1 °F 44.6 °F 29.9 in SSW 7.4 mph 14.8 mph 88% 0 in
13:06 47.1 °F 44.6 °F 29.9 in SSE 13.9 mph 14.8 mph 88% 0 in
13:11 47.1 °F 44.6 °F 29.9 in South 9.8 mph 14.8 mph 88% 0 in
13:12 47.1 °F 44.6 °F 29.9 in South 12.5 mph 14.8 mph 88% 0 in
13:13 47.1 °F 44.6 °F 29.9 in South 13.6 mph 15.7 mph 88% 0 in
13:18 47.1 °F 44.6 °F 29.9 in SSW 7.6 mph 15.7 mph 88% 0 in
13:19 47.1 °F 44.6 °F 29.9 in SSW 8.7 mph 15.7 mph 88% 0 in
13:24 46.9 °F 44.6 °F 29.9 in SSW 8.5 mph 14.5 mph 89% 0 in
13:25 46.9 °F 44.6 °F 29.9 in SSE 7.6 mph 14.5 mph 89% 0 in
13:27 46.9 °F 44.6 °F 29.9 in WSW 7.8 mph 14.5 mph 89% 0 in
13:32 46.9 °F 44.6 °F 29.9 in South 8.1 mph 19.5 mph 89% 0 in
13:34 46.9 °F 44.6 °F 29.9 in SSW 9.8 mph 19.5 mph 89% 0 in
13:39 46.9 °F 44.6 °F 29.9 in South 7.6 mph 19.5 mph 89% 0 in
13:41 46.9 °F 44.6 °F 29.9 in South 10.1 mph 14.3 mph 89% 0 in
13:42 46.8 °F 44.6 °F 29.9 in SW 9.4 mph 14.3 mph 89% 0 in
13:47 46.8 °F 44.6 °F 29.9 in SSW 8.5 mph 14.3 mph 90% 0 in
13:49 46.8 °F 44.6 °F 29.9 in South 10.1 mph 13.2 mph 90% 0 in
13:54 46.8 °F 44.6 °F 29.9 in SSW 6.5 mph 15.4 mph 89% 0 in
13:59 46.6 °F 44.6 °F 29.9 in South 11.2 mph 16.6 mph 89% 0 in
14:05 46.8 °F 44.6 °F 29.9 in SSW 13 mph 16.6 mph 89% 0 in
14:10 46.8 °F 42.8 °F 29.9 in SSW 9.2 mph 17 mph 88% 0 in
14:11 46.8 °F 42.8 °F 29.9 in SSW 9.8 mph 17 mph 88% 0 in
14:16 46.6 °F 42.8 °F 29.9 in South 9.2 mph 17.2 mph 88% 0 in
14:21 46.6 °F 44.6 °F 29.9 in South 6.5 mph 17.2 mph 89% 0 in
14:22 46.8 °F 44.6 °F 29.9 in SW 10.1 mph 17.2 mph 89% 0 in
14:27 46.6 °F 44.6 °F 29.9 in SSW 13.2 mph 17.2 mph 89% 0 in
14:30 46.6 °F 44.6 °F 29.9 in SSE 10.3 mph 17.2 mph 89% 0 in
14:35 46.6 °F 42.8 °F 29.9 in SSW 9.6 mph 17.2 mph 88% 0 in
14:38 46.6 °F 44.6 °F 29.9 in SSW 16.6 mph 16.6 mph 89% 0 in
14:43 46.4 °F 44.6 °F 29.9 in SSW 17.4 mph 17.4 mph 89% 0 in
14:44 46.4 °F 44.6 °F 29.9 in SW 13 mph 17.4 mph 89% 0 in
14:50 46.4 °F 44.6 °F 29.9 in South 13.9 mph 17.4 mph 89% 0 in
14:51 46.4 °F 44.6 °F 29.9 in SSW 15.4 mph 17.4 mph 89% 0 in
14:56 46.4 °F 44.6 °F 29.9 in SSW 10.5 mph 17.2 mph 89% 0 in
14:59 46.4 °F 44.6 °F 29.9 in SSW 13 mph 17.2 mph 89% 0 in
15:04 46.4 °F 44.6 °F 29.9 in South 5.8 mph 17.4 mph 90% 0 in
15:05 46.4 °F 44.6 °F 29.9 in SSW 7.6 mph 17.4 mph 90% 0 in
15:10 46.4 °F 44.6 °F 29.9 in South 7.6 mph 17.4 mph 90% 0 in
15:12 46.2 °F 44.6 °F 29.9 in SSW 12.8 mph 17.4 mph 91% 0 in
15:17 46.4 °F 44.6 °F 29.9 in SSW 9.6 mph 16.1 mph 91% 0 in
15:18 46.4 °F 44.6 °F 29.9 in SSW 5.4 mph 16.1 mph 91% 0 in
15:23 46.4 °F 44.6 °F 29.9 in SSE 10.5 mph 16.1 mph 91% 0 in
15:28 46.4 °F 44.6 °F 29.8 in South 11 mph 14.8 mph 90% 0 in
15:30 46.4 °F 44.6 °F 29.8 in South 8.7 mph 14.8 mph 90% 0 in
15:31 46.4 °F 44.6 °F 29.8 in SSW 7.6 mph 14.8 mph 90% 0 in
15:36 46.2 °F 44.6 °F 29.8 in South 13 mph 14.8 mph 91% 0 in
15:39 46.2 °F 44.6 °F 29.8 in SSW 9.2 mph 13.4 mph 91% 0 in
15:44 46.2 °F 44.6 °F 29.9 in South 14.8 mph 14.8 mph 91% 0 in
15:47 46.2 °F 44.6 °F 29.9 in South 12.5 mph 15.4 mph 92% 0 in
15:49 46.2 °F 44.6 °F 29.9 in South 10.3 mph 17.4 mph 92% 0 in
15:55 45.9 °F 42.8 °F 29.9 in SSW 7.6 mph 17.4 mph 92% 0 in
15:57 45.9 °F 42.8 °F 29.9 in South 12.8 mph 17.4 mph 92% 0 in
16:00 45.7 °F 42.8 °F 29.9 in South 8.9 mph 13.9 mph 92% 0 in
16:01 45.7 °F 42.8 °F 29.9 in SSE 8.7 mph 13.9 mph 92% 0 in
16:03 45.7 °F 42.8 °F 29.9 in South 8.1 mph 14.3 mph 92% 0 in
16:08 45.5 °F 44.6 °F 29.9 in South 8.1 mph 14.3 mph 93% 0 in
16:13 45.5 °F 44.6 °F 29.9 in SSW 7.4 mph 14.1 mph 93% 0 in
16:18 45.5 °F 44.6 °F 29.9 in WSW 7.4 mph 15.2 mph 93% 0 in
16:19 45.5 °F 44.6 °F 29.9 in SSW 8.1 mph 15.2 mph 93% 0 in
16:25 45.3 °F 42.8 °F 29.9 in WSW 9.2 mph 14.1 mph 93% 0 in
16:27 45.3 °F 42.8 °F 29.8 in South 10.3 mph 12.5 mph 93% 0 in
16:30 45.3 °F 42.8 °F 29.8 in SSW 10.3 mph 14.8 mph 93% 0 in
16:33 45.3 °F 42.8 °F 29.8 in SSE 13.2 mph 14.8 mph 93% 0 in
16:38 45.3 °F 42.8 °F 29.8 in SSW 15.4 mph 15.9 mph 93% 0 in
16:44 45.3 °F 42.8 °F 29.8 in SSW 11 mph 15.9 mph 93% 0 in
16:47 45.3 °F 42.8 °F 29.8 in South 11 mph 15.9 mph 93% 0 in
16:50 45.3 °F 42.8 °F 29.8 in South 8.7 mph 15.2 mph 93% 0 in
16:55 45.1 °F 42.8 °F 29.8 in SSW 8.7 mph 15.4 mph 93% 0 in
16:57 45.1 °F 42.8 °F 29.8 in SSW 10.1 mph 15.4 mph 93% 0 in
17:02 45.1 °F 42.8 °F 29.8 in SSW 10.1 mph 19.2 mph 93% 0 in
17:04 45.1 °F 42.8 °F 29.8 in SSW 17 mph 19.2 mph 93% 0 in
17:08 45.1 °F 42.8 °F 29.8 in SSE 13.2 mph 19.2 mph 93% 0 in
17:13 45.1 °F 42.8 °F 29.8 in SSW 10.7 mph 17.9 mph 93% 0 in
17:18 45.1 °F 42.8 °F 29.8 in SSW 13 mph 16.8 mph 93% 0 in
17:20 45.1 °F 42.8 °F 29.8 in SSW 6.5 mph 16.8 mph 93% 0 in
17:23 45.1 °F 42.8 °F 29.8 in South 7.6 mph 16.8 mph 93% 0 in
17:28 45 °F 42.8 °F 29.8 in South 10.7 mph 15.9 mph 93% 0 in
17:29 45 °F 42.8 °F 29.8 in SW 10.7 mph 15.9 mph 93% 0 in
17:34 45 °F 42.8 °F 29.8 in SSE 12.8 mph 17 mph 93% 0 in
17:35 45 °F 42.8 °F 29.8 in SSW 11 mph 17 mph 93% 0 in
17:40 45 °F 42.8 °F 29.8 in South 8.1 mph 17.9 mph 93% 0 in
17:45 44.8 °F 42.8 °F 29.8 in South 12.8 mph 21.5 mph 93% 0 in
17:49 44.8 °F 42.8 °F 29.8 in South 15.4 mph 21.5 mph 93% 0 in
17:54 44.8 °F 42.8 °F 29.8 in South 14.8 mph 21.5 mph 93% 0 in
17:59 44.8 °F 42.8 °F 29.8 in SSW 15.2 mph 22.4 mph 93% 0 in
18:03 44.8 °F 42.8 °F 29.8 in SSW 8.1 mph 22.4 mph 93% 0 in
18:04 44.8 °F 42.8 °F 29.8 in SSE 13.6 mph 22.4 mph 93% 0 in
18:09 44.6 °F 42.8 °F 29.8 in South 13 mph 21.5 mph 93% 0 in
18:14 44.6 °F 42.8 °F 29.8 in SSW 17 mph 22.4 mph 93% 0 in
18:16 44.6 °F 42.8 °F 29.8 in SSW 11 mph 22.4 mph 93% 0 in
18:21 44.6 °F 42.8 °F 29.8 in SSW 13.2 mph 17.7 mph 93% 0 in
18:22 44.6 °F 42.8 °F 29.8 in SW 14.8 mph 17.7 mph 93% 0 in
18:27 44.6 °F 42.8 °F 29.8 in South 15.4 mph 17.7 mph 93% 0 in
18:32 44.4 °F 42.8 °F 29.8 in SSW 8.9 mph 19.9 mph 94% 0 in
18:37 44.4 °F 42.8 °F 29.8 in South 16.3 mph 19.9 mph 94% 0 in
18:40 44.2 °F 42.8 °F 29.8 in SSW 7.6 mph 19.7 mph 94% 0 in
18:45 44.2 °F 42.8 °F 29.8 in SSW 17.4 mph 19.2 mph 94% 0 in
18:47 44.2 °F 42.8 °F 29.8 in SSE 10.7 mph 19.2 mph 94% 0 in
18:52 44.2 °F 42.8 °F 29.8 in SSW 14.5 mph 19.2 mph 94% 0 in
18:55 44.2 °F 42.8 °F 29.8 in South 14.8 mph 17.4 mph 94% 0 in
19:00 44.1 °F 42.8 °F 29.8 in SSE 6.5 mph 17.7 mph 94% 0 in
19:01 44.1 °F 42.8 °F 29.8 in South 15.4 mph 17.7 mph 94% 0 in
19:06 44.1 °F 42.8 °F 29.8 in SSW 14.8 mph 18.8 mph 94% 0 in
19:08 44.1 °F 42.8 °F 29.8 in South 10.5 mph 18.8 mph 94% 0 in
19:13 44.1 °F 42.8 °F 29.8 in SSW 9.4 mph 21.3 mph 94% 0 in
19:18 44.1 °F 42.8 °F 29.8 in SSW 12.3 mph 21.3 mph 94% 0 in
19:19 44.1 °F 42.8 °F 29.8 in SSW 10.3 mph 21.3 mph 94% 0 in
19:23 43.9 °F 42.8 °F 29.8 in SSW 17.2 mph 17.4 mph 94% 0 in
19:28 43.9 °F 42.8 °F 29.8 in South 19.7 mph 19.7 mph 95% 0 in
19:29 43.9 °F 42.8 °F 29.8 in SSW 13.2 mph 22.1 mph 94% 0 in
19:35 43.9 °F 42.8 °F 29.8 in South 8.5 mph 22.1 mph 95% 0 in
19:36 43.7 °F 42.8 °F 29.8 in SSW 12.1 mph 22.1 mph 95% 0 in
19:41 43.7 °F 42.8 °F 29.7 in South 15.7 mph 17.2 mph 95% 0 in
19:42 43.7 °F 42.8 °F 29.7 in SSW 10.3 mph 17.2 mph 95% 0 in
19:47 43.5 °F 42.8 °F 29.7 in South 17.7 mph 23.9 mph 95% 0 in
19:48 43.5 °F 42.8 °F 29.7 in South 12.8 mph 23.9 mph 95% 0 in
19:53 43.5 °F 42.8 °F 29.7 in SSE 11 mph 23.9 mph 95% 0 in
19:58 43.5 °F 42.8 °F 29.7 in South 12.8 mph 19.2 mph 95% 0 in
20:03 43.5 °F 42.8 °F 29.7 in SSE 10.1 mph 19.2 mph 95% 0 in
20:04 43.5 °F 42.8 °F 29.7 in South 12.3 mph 19.2 mph 95% 0 in
20:08 43.3 °F 42.8 °F 29.7 in SSW 14.1 mph 18.6 mph 95% 0 in
20:10 43.3 °F 42.8 °F 29.7 in SSW 10.3 mph 18.6 mph 95% 0 in
20:14 43.3 °F 42.8 °F 29.7 in SSE 17 mph 18.6 mph 95% 0 in
20:15 43.3 °F 42.8 °F 29.7 in SSE 14.1 mph 21 mph 95% 0 in
20:20 43.3 °F 42.8 °F 29.7 in South 17 mph 21 mph 95% 0 in
20:23 43.3 °F 42.8 °F 29.7 in South 15.2 mph 21 mph 95% 0 in
20:28 43.2 °F 42.8 °F 29.7 in South 8.1 mph 19 mph 95% 0 in
20:29 43.2 °F 42.8 °F 29.7 in SSW 10.7 mph 19 mph 95% 0 in
20:34 43 °F 42.8 °F 29.7 in South 11.2 mph 18.6 mph 95% 0 in
20:39 43 °F 42.8 °F 29.7 in SSE 13 mph 18.6 mph 95% 0 in
20:40 43 °F 42.8 °F 29.7 in South 16.1 mph 18.6 mph 95% 0 in
20:41 42.8 °F 42.8 °F 29.7 in South 16.1 mph 18.6 mph 95% 0 in
20:46 42.8 °F 42.8 °F 29.7 in SSW 8.5 mph 19.7 mph 95% 0 in
20:47 42.8 °F 42.8 °F 29.7 in SSW 15.4 mph 19.7 mph 95% 0 in
20:52 42.6 °F 42.8 °F 29.7 in SSW 10.7 mph 20.6 mph 96% 0 in
20:55 42.6 °F 42.8 °F 29.7 in South 15.2 mph 24.6 mph 96% 0 in
21:00 42.6 °F 42.8 °F 29.7 in SSE 9.6 mph 25.3 mph 96% 0 in
21:02 42.6 °F 42.8 °F 29.7 in SSW 11 mph 25.3 mph 96% 0 in
21:03 42.6 °F 42.8 °F 29.7 in South 10.1 mph 25.3 mph 96% 0 in
21:08 42.6 °F 42.8 °F 29.7 in SSW 17.4 mph 25.3 mph 96% 0 in
21:11 42.6 °F 42.8 °F 29.7 in SSW 9.6 mph 19.2 mph 96% 0 in
21:16 42.6 °F 42.8 °F 29.7 in South 18.8 mph 22.1 mph 96% 0 in
21:21 42.6 °F 42.8 °F 29.7 in SSW 21.5 mph 22.1 mph 96% 0 in
21:22 42.6 °F 42.8 °F 29.7 in SSW 15.2 mph 22.1 mph 96% 0 in
21:26 42.4 °F 42.8 °F 29.7 in SW 11 mph 21.5 mph 95% 0 in
21:31 42.4 °F 42.8 °F 29.7 in South 25.1 mph 25.1 mph 95% 0 in
21:32 42.4 °F 42.8 °F 29.7 in SSW 8.5 mph 25.1 mph 95% 0 in
21:38 42.4 °F 42.8 °F 29.7 in South 9.6 mph 25.1 mph 95% 0 in
21:43 42.4 °F 42.8 °F 29.7 in South 12.8 mph 19.9 mph 96% 0 in
21:44 42.4 °F 42.8 °F 29.7 in South 15.4 mph 19.9 mph 96% 0 in
21:49 42.3 °F 42.8 °F 29.7 in South 13 mph 25.7 mph 96% 0 in
21:54 42.3 °F 41 °F 29.7 in South 15.4 mph 25.7 mph 95% 0 in
21:55 42.3 °F 42.8 °F 29.7 in SSW 9.8 mph 25.7 mph 96% 0 in
21:56 42.3 °F 42.8 °F 29.7 in SSW 10.5 mph 25.7 mph 96% 0 in
22:01 42.3 °F 42.8 °F 29.7 in SSW 17.7 mph 23.7 mph 96% 0 in
22:02 42.3 °F 42.8 °F 29.7 in SW 19.9 mph 23.7 mph 96% 0 in
22:07 42.3 °F 42.8 °F 29.7 in SSE 13.2 mph 23.7 mph 96% 0 in
22:12 42.3 °F 42.8 °F 29.7 in SSW 15.4 mph 20.1 mph 96% 0 in
22:14 42.3 °F 42.8 °F 29.7 in SSW 15.2 mph 20.1 mph 96% 0 in
22:16 42.3 °F 42.8 °F 29.7 in South 11 mph 20.4 mph 96% 0 in
22:21 42.1 °F 42.8 °F 29.7 in SSW 12.1 mph 22.6 mph 96% 0 in
22:22 42.1 °F 42.8 °F 29.7 in South 14.8 mph 22.6 mph 96% 0 in
22:23 42.1 °F 42.8 °F 29.7 in South 13 mph 22.6 mph 96% 0 in
22:28 42.1 °F 42.8 °F 29.6 in South 12.8 mph 22.6 mph 96% 0 in
22:33 42.1 °F 42.8 °F 29.6 in SSW 24.6 mph 28.6 mph 96% 0 in
22:34 42.1 °F 41 °F 29.6 in SSE 15.2 mph 28.6 mph 95% 0 in
22:38 42.1 °F 41 °F 29.6 in SSW 12.1 mph 28.6 mph 95% 0 in
22:40 42.1 °F 41 °F 29.6 in South 13.4 mph 28.6 mph 95% 0 in
22:45 42.1 °F 41 °F 29.6 in SSE 19.2 mph 22.8 mph 95% 0 in
22:47 42.1 °F 41 °F 29.6 in South 19.5 mph 22.8 mph 95% 0 in
22:52 42.1 °F 41 °F 29.6 in SSW 15.4 mph 20.6 mph 95% 0 in
22:53 42.1 °F 41 °F 29.6 in SSW 10.7 mph 20.6 mph 95% 0 in
22:58 42.1 °F 41 °F 29.6 in South 12.8 mph 19.7 mph 95% 0 in
23:01 42.1 °F 41 °F 29.6 in SSW 6.5 mph 19.7 mph 95% 0 in
23:02 42.1 °F 41 °F 29.6 in South 19.7 mph 20.1 mph 95% 0 in
23:07 42.3 °F 41 °F 29.6 in South 13.2 mph 23.9 mph 95% 0 in
23:10 42.3 °F 41 °F 29.6 in South 17.4 mph 23.9 mph 95% 0 in
23:15 42.3 °F 41 °F 29.6 in SSW 12.8 mph 24.6 mph 94% 0 in
23:20 42.3 °F 41 °F 29.6 in South 14.8 mph 24.6 mph 94% 0 in
23:22 42.3 °F 41 °F 29.6 in South 10.5 mph 24.6 mph 94% 0 in
23:27 42.3 °F 41 °F 29.6 in South 10.7 mph 26.6 mph 94% 0 in
23:32 42.3 °F 41 °F 29.6 in SSW 11.4 mph 26.6 mph 94% 0 in
23:34 42.3 °F 41 °F 29.6 in South 17 mph 26.6 mph 94% 0 in
23:39 42.3 °F 41 °F 29.6 in South 18.8 mph 26.2 mph 94% 0 in
23:43 42.3 °F 41 °F 29.6 in South 17.2 mph 26.2 mph 94% 0 in
23:47 42.1 °F 41 °F 29.6 in SSW 10.3 mph 24.2 mph 94% 0 in
23:51 42.1 °F 41 °F 29.6 in SSW 12.3 mph 24.2 mph 94% 0 in
23:56 42.1 °F 41 °F 29.6 in South 14.1 mph 23.5 mph 94% 0 in
23:58 42.1 °F 41 °F 29.6 in SSW 17.7 mph 23.5 mph 94% 0 in
Données Historique de Météo Turbie

Mise a jour : 20/05/2018 19:46:12
Généré par Cumulus 1.9.4 (1099)